Overview Statistics Trail Chart Weather Telemetry Raw packets
 

This is the latest recevied weather packets stored in our database for station/object N0QWM. If no packets are shown the sender has not sent any weather packets the latest 10 day(s).

<< 77 78 79 80 81 82 83 >>
Time Temp. Humidity Pressure Rain* Wind** Luminosity Snow
1788134334 30.56° C 66% 1022.7 hPa 0 mm - 6 W/m² -
1788134029 31.11° C 65% 1022.5 hPa 0 mm - 9 W/m² -
1788133725 31.11° C 65% 1022.7 hPa 0 mm - 10 W/m² -
1788133420 31.11° C 64% 1022.6 hPa 0 mm - 13 W/m² -
1788133116 31.11° C 64% 1022.6 hPa 0 mm - 16 W/m² -
1788132811 31.67° C 63% 1022.5 hPa 0 mm - 19 W/m² -
1788132507 31.67° C 63% 1022.6 hPa 0 mm - 22 W/m² -
1788132202 32.22° C 62% 1022.6 hPa 0 mm - 25 W/m² -
1788131899 32.22° C 62% 1022.5 hPa 0 mm - 27 W/m² -
1788131599 32.22° C 62% 1022.5 hPa 0 mm - 29 W/m² -
1788131293 32.22° C 62% 1022.5 hPa 0 mm - 31 W/m² -
1788130989 32.78° C 61% 1022.4 hPa 0 mm - 33 W/m² -
1788130688 32.78° C 60% 1022.7 hPa 0 mm - 36 W/m² -
1788130384 32.22° C 60% 1022.4 hPa 0 mm - 37 W/m² -
1788130083 32.22° C 60% 1022.6 hPa 0 mm - 38 W/m² -
1788129777 32.22° C 61% 1022.2 hPa 0 mm - 39 W/m² -
1788129469 32.22° C 61% 1022.2 hPa 0 mm - 37 W/m² -
1788129164 32.22° C 62% 1022.4 hPa 0 mm - 42 W/m² -
1788128864 32.78° C 61% 1022.5 hPa 0 mm - 41 W/m² -
1788128560 32.78° C 61% 1022.5 hPa 0 mm - 42 W/m² -
1788128255 33.33° C 59% 1022.2 hPa 0 mm - 57 W/m² -
1788127952 32.78° C 61% 1022.3 hPa 0 mm - 70 W/m² -
1788127647 32.78° C 60% 1022.2 hPa 0 mm - 75 W/m² -
1788127346 33.89° C 59% 1022.4 hPa 0 mm - 61 W/m² -
1788127044 33.89° C 57% 1022.4 hPa 0 mm - 69 W/m² -

* Rain latest hour (hover to see other rain measurements)
** Current wind speed in m/s (hover to see current wind gust speed)